When you browse on this site, cookies collect data to enhance your experience and personalize the content and advertising you see.
Visit our Privacy Policy to learn more. By continuing to use the site, you agree to this use of cookies and data.
  • în România
  • Lista ţărilor
  • Pe 7 zile
  • Temperatura apei
  • Hartă satelitară
  • Meteo pe hartă
  • Widget-uri
  • user-avatar
    Intrare

    Meteo pe oră la Trinidad

    Astăzi, 25 Iunie, Marţi

    Timp Temperatura Precipitaţii Vânt Presiune Umiditate
    00:00 +24°C° 0 mm 1 m/s 743 mmHg 79%
    01:00 +24°C° 0 mm 1 m/s 742 mmHg 79%
    02:00 +24°C° 0 mm 1 m/s 741 mmHg 80%
    03:00 +24°C° 0 mm 1 m/s 741 mmHg 81%
    04:00 +23°C° 0 mm 1 m/s 742 mmHg 82%
    05:00 +23°C° 0 mm 1 m/s 742 mmHg 83%
    06:00 +24°C° 0 mm 2 m/s 742 mmHg 80%
    07:00 +25°C° 0 mm 2 m/s 742 mmHg 78%
    08:00 +25°C° 0 mm 2 m/s 743 mmHg 75%
    09:00 +28°C° 0 mm 3 m/s 743 mmHg 67%
    10:00 +30°C° 0 mm 4 m/s 744 mmHg 59%
    11:00 +33°C° 0 mm 5 m/s 744 mmHg 51%
    12:00 +33°C° 0 mm 4 m/s 743 mmHg 51%
    13:00 +34°C° 0 mm 4 m/s 743 mmHg 51%
    14:00 +34°C° 0 mm 4 m/s 742 mmHg 51%
    15:00 +33°C° 0 mm 3 m/s 742 mmHg 54%
    16:00 +31°C° 0 mm 3 m/s 741 mmHg 58%
    17:00 +31°C° 0 mm 2 m/s 741 mmHg 61%
    18:00 +29°C° 0 mm 2 m/s 741 mmHg 66%
    19:00 +28°C° 0 mm 1 m/s 742 mmHg 71%
    20:00 +26°C° 0 mm 1 m/s 742 mmHg 77%
    21:00 +26°C° 0.3 mm 1 m/s 742 mmHg 80%
    22:00 +25°C° 0.3 mm 1 m/s 743 mmHg 83%
    23:00 +23°C° 0.3 mm 0 m/s 743 mmHg 86%

    Mâine, 26 Iunie, Miercuri

    Timp Temperatura Precipitaţii Vânt Presiune Umiditate
    00:00 +22°C° 0.6 mm 0 m/s 743 mmHg 88%
    01:00 +22°C° 0.6 mm 0 m/s 743 mmHg 91%
    02:00 +21°C° 0.6 mm 0 m/s 743 mmHg 94%
    03:00 +23°C° 1.7 mm 1 m/s 743 mmHg 95%
    04:00 +23°C° 1.7 mm 1 m/s 744 mmHg 96%
    05:00 +21°C° 1.7 mm 2 m/s 744 mmHg 97%
    06:00 +21°C° 1.6 mm 2 m/s 745 mmHg 97%
    07:00 +20°C° 1.6 mm 3 m/s 745 mmHg 96%
    08:00 +20°C° 1.6 mm 3 m/s 746 mmHg 95%
    09:00 +20°C° 0.8 mm 3 m/s 746 mmHg 94%
    10:00 +20°C° 0.8 mm 2 m/s 747 mmHg 93%
    11:00 +20°C° 0.8 mm 2 m/s 747 mmHg 92%
    12:00 +21°C° 0.5 mm 2 m/s 746 mmHg 88%
    13:00 +23°C° 0.5 mm 1 m/s 746 mmHg 85%
    14:00 +25°C° 0.5 mm 1 m/s 745 mmHg 82%
    15:00 +25°C° 0 mm 1 m/s 744 mmHg 83%
    16:00 +25°C° 0 mm 1 m/s 744 mmHg 83%
    17:00 +24°C° 0 mm 1 m/s 743 mmHg 84%
    18:00 +24°C° 0 mm 1 m/s 743 mmHg 87%
    19:00 +23°C° 0 mm 1 m/s 743 mmHg 90%
    20:00 +22°C° 0 mm 1 m/s 743 mmHg 93%
    21:00 +21°C° 0 mm 1 m/s 744 mmHg 93%
    22:00 +21°C° 0 mm 1 m/s 744 mmHg 93%
    23:00 +20°C° 0 mm 1 m/s 744 mmHg 93%

    Poimâine, 27 Iunie, Joi

    Timp Temperatura Precipitaţii Vânt Presiune Umiditate
    00:00 +20°C° 0.2 mm 1 m/s 744 mmHg 93%
    01:00 +20°C° 0.2 mm 1 m/s 744 mmHg 92%
    02:00 +19°C° 0.2 mm 1 m/s 744 mmHg 92%
    03:00 +19°C° 0.6 mm 1 m/s 744 mmHg 94%
    04:00 +17°C° 0.6 mm 0 m/s 744 mmHg 95%
    05:00 +17°C° 0.6 mm 0 m/s 743 mmHg 96%
    06:00 +17°C° 0.2 mm 0 m/s 744 mmHg 96%
    07:00 +18°C° 0.2 mm 0 m/s 744 mmHg 95%
    08:00 +18°C° 0.2 mm 0 m/s 745 mmHg 94%
    09:00 +21°C° 0.1 mm 1 m/s 745 mmHg 92%
    10:00 +23°C° 0.1 mm 1 m/s 746 mmHg 89%
    11:00 +24°C° 0.1 mm 1 m/s 746 mmHg 86%
    12:00 +25°C° 0.2 mm 1 m/s 745 mmHg 86%
    13:00 +25°C° 0.2 mm 1 m/s 744 mmHg 85%
    14:00 +26°C° 0.2 mm 2 m/s 743 mmHg 84%
    15:00 +27°C° 0 mm 1 m/s 743 mmHg 83%
    16:00 +27°C° 0 mm 1 m/s 743 mmHg 81%
    17:00 +28°C° 0 mm 1 m/s 742 mmHg 79%
    18:00 +26°C° 0.1 mm 1 m/s 742 mmHg 85%
    19:00 +25°C° 0.1 mm 1 m/s 743 mmHg 91%
    20:00 +22°C° 0.1 mm 0 m/s 743 mmHg 96%
    21:00 +22°C° 1 mm 0 m/s 743 mmHg 97%
    22:00 +24°C° 1 mm 1 m/s 744 mmHg 97%
    23:00 +24°C° 1 mm 1 m/s 744 mmHg 98%

    28 Iunie, Vineri

    Timp Temperatura Precipitaţii Vânt Presiune Umiditate
    00:00 +23°C° 0.3 mm 1 m/s 744 mmHg 98%
    01:00 +23°C° 0.3 mm 1 m/s 743 mmHg 98%
    02:00 +21°C° 0.3 mm 0 m/s 743 mmHg 98%
    03:00 +23°C° 0.6 mm 1 m/s 743 mmHg 98%
    04:00 +23°C° 0.6 mm 1 m/s 743 mmHg 98%
    05:00 +23°C° 0.6 mm 1 m/s 743 mmHg 98%
    06:00 +23°C° 0 mm 1 m/s 744 mmHg 97%
    07:00 +24°C° 0 mm 1 m/s 744 mmHg 96%
    08:00 +24°C° 0 mm 1 m/s 745 mmHg 95%
    09:00 +26°C° 0 mm 1 m/s 745 mmHg 90%
    10:00 +27°C° 0 mm 1 m/s 745 mmHg 84%
    11:00 +29°C° 0 mm 2 m/s 746 mmHg 79%
    12:00 +29°C° 1.5 mm 2 m/s 745 mmHg 78%
    13:00 +30°C° 1.5 mm 2 m/s 745 mmHg 77%
    14:00 +30°C° 1.5 mm 3 m/s 744 mmHg 76%
    15:00 +30°C° 1.2 mm 2 m/s 744 mmHg 79%
    16:00 +29°C° 1.2 mm 2 m/s 743 mmHg 83%
    17:00 +29°C° 1.2 mm 1 m/s 743 mmHg 86%
    18:00 +27°C° 0.1 mm 1 m/s 744 mmHg 89%
    19:00 +26°C° 0.1 mm 1 m/s 744 mmHg 91%
    20:00 +25°C° 0.1 mm 1 m/s 744 mmHg 94%
    21:00 +25°C° 0 mm 1 m/s 744 mmHg 94%
    22:00 +25°C° 0 mm 1 m/s 744 mmHg 95%
    23:00 +25°C° 0 mm 1 m/s 744 mmHg 96%

    29 Iunie, Sâmbătă

    Timp Temperatura Precipitaţii Vânt Presiune Umiditate
    00:00 +24°C° 0 mm 1 m/s 744 mmHg 96%
    01:00 +24°C° 0 mm 1 m/s 744 mmHg 96%
    02:00 +24°C° 0 mm 1 m/s 743 mmHg 97%
    03:00 +24°C° 0 mm 1 m/s 743 mmHg 96%
    04:00 +24°C° 0 mm 1 m/s 743 mmHg 96%
    05:00 +24°C° 0 mm 1 m/s 743 mmHg 96%
    06:00 +24°C° 0 mm 2 m/s 743 mmHg 95%
    07:00 +24°C° 0 mm 2 m/s 744 mmHg 93%
    08:00 +24°C° 0 mm 2 m/s 744 mmHg 92%
    09:00 +26°C° 0 mm 2 m/s 745 mmHg 83%
    10:00 +28°C° 0 mm 3 m/s 745 mmHg 74%
    11:00 +30°C° 0 mm 3 m/s 745 mmHg 65%
    12:00 +31°C° 0 mm 3 m/s 745 mmHg 63%
    13:00 +33°C° 0 mm 3 m/s 744 mmHg 60%
    14:00 +33°C° 0 mm 4 m/s 743 mmHg 58%
    15:00 +33°C° 0 mm 3 m/s 743 mmHg 61%
    16:00 +31°C° 0 mm 2 m/s 743 mmHg 65%
    17:00 +30°C° 0 mm 2 m/s 742 mmHg 69%
    18:00 +29°C° 0 mm 1 m/s 742 mmHg 74%
    19:00 +27°C° 0 mm 1 m/s 743 mmHg 80%
    20:00 +26°C° 0 mm 1 m/s 743 mmHg 85%
    21:00 +26°C° 0 mm 1 m/s 743 mmHg 86%
    22:00 +25°C° 0 mm 1 m/s 743 mmHg 88%
    23:00 +25°C° 0 mm 1 m/s 743 mmHg 89%

    30 Iunie, Duminică

    Timp Temperatura Precipitaţii Vânt Presiune Umiditate
    00:00 +25°C° 0 mm 1 m/s 743 mmHg 90%
    01:00 +24°C° 0 mm 1 m/s 743 mmHg 91%
    02:00 +24°C° 0 mm 1 m/s 743 mmHg 91%
    03:00 +24°C° 0 mm 1 m/s 743 mmHg 92%
    04:00 +24°C° 0 mm 1 m/s 743 mmHg 92%
    05:00 +24°C° 0 mm 1 m/s 743 mmHg 92%
    06:00 +24°C° 0 mm 1 m/s 744 mmHg 90%
    07:00 +25°C° 0 mm 1 m/s 744 mmHg 88%
    08:00 +25°C° 0 mm 1 m/s 745 mmHg 86%
    09:00 +27°C° 0 mm 1 m/s 745 mmHg 78%
    10:00 +29°C° 0 mm 2 m/s 745 mmHg 70%
    11:00 +31°C° 0 mm 2 m/s 746 mmHg 62%
    12:00 +33°C° 0 mm 3 m/s 745 mmHg 59%
    13:00 +34°C° 0 mm 3 m/s 744 mmHg 56%
    14:00 +34°C° 0 mm 3 m/s 743 mmHg 54%
    15:00 +34°C° 0 mm 3 m/s 743 mmHg 58%
    16:00 +32°C° 0 mm 2 m/s 742 mmHg 61%
    17:00 +31°C° 0 mm 2 m/s 742 mmHg 65%
    18:00 +30°C° 0 mm 1 m/s 742 mmHg 70%
    19:00 +28°C° 0 mm 1 m/s 742 mmHg 76%
    20:00 +27°C° 0 mm 1 m/s 743 mmHg 81%
    21:00 +26°C° 0 mm 1 m/s 743 mmHg 82%
    22:00 +26°C° 0 mm 1 m/s 743 mmHg 83%
    23:00 +26°C° 0 mm 1 m/s 743 mmHg 85%
    Arată mai mult